Location: Larkspur
(54.4391°N, 113.7691°W)
Time: 00:12:12
(UTC+00:00)

CZ-4C DEB - Pass Details

Date: 30 May 2024
Orbit: 605 x 614 km, 97.8° (Epoch: 21 June)

Event Time Altitude Azimuth Distance (km) Brightness Sun altitude
Exits shadow 04:57:07 - 148° (SSE) 2,104 ? -6.7°
Reaches altitude 10° 04:57:25 10° 147° (SSE) 1,977 ? -6.8°
Maximum altitude 05:01:38 56° 69° (ENE) 736 ? -7.1°
Drops below altitude 10° 05:05:52 10° 352° (N) 1,987 ? -7.5°
Sets 05:08:05 0° 348° (NNW) 2,896 ? -7.7°
